Flag for Mexico Weather past 2 weeks in Mexico City, Federal District, Mexico

Now
61 °F

Passing clouds.


Feels Like: 61 °F
Forecast: 56 / 76 °F
Wind: No wind

Location: Mexico City / Licenci

Current Time: Jul 29, 2015 at 4:45:18 AM

Latest Report: Jul 29, 2015 at 3:48 AM


Visibility: 12 mi

Pressure: 29.78 "Hg (22.85 "Hg at 2241m altitude)

Humidity: 68%

Dew point: 50 °F

Location of Mexico CityLocation

Historic Weather in Mexico City — Graph

°F

Mexico City temperature yesterday

Maximum temperature yesterday: 81 °F (at 3:47 PM)
Minimum temperature yesterday: 57 °F (at 5:46 AM)
Average temperature yesterday: 68 °F

Past Weeks' High & Low Weather Summary

 TemperatureHumidityPressure
High81 °F (Jul 26, 5:48 PM)94% (Jul 19, 5:45 AM)30.45 "Hg (Jul 19, 5:45 AM)
Low54 °F (Jul 25, 5:46 AM)20% (Jul 26, 6:48 PM)29.66 "Hg (Jul 26, 6:48 PM)
Average65 °F62%30.19 "Hg
* Reported Jul 14 12:46 AM — Jul 29 12:50 AM, Mexico City, Weather by CustomWeather, © 2015

Note: Actual official high and low records may vary slightly from our data, if they occured in-between our weather recording intervals... More about our weather records

Advertising

Mexico City weather history for previous 24 hours

 ConditionsComfort  
Time TempWeatherWind HumidityBarometerVisibility
12:50 AM
Wed, Jul 29
63 °FPassing clouds.13 mph64%29.85 "Hg14 mi
10:48 PM
Tue, Jul 28
66 °FPassing clouds.6 mph52%30.36 "Hg14 mi
9:46 PM68 °FPartly cloudy.13 mph56%29.79 "Hg12 mi
8:48 PM68 °FBroken clouds.12 mph64%30.30 "Hg8 mi
8:32 PM68 °FSleet. Cloudy.N/A64%30.28 "HgN/A
7:56 PM66 °FThunderstorms. Mostly cloudy.22 mph68%30.26 "Hg7 mi
7:13 PM75 °FSleet. Cloudy.N/A44%30.24 "HgN/A
5:44 PM79 °FScattered clouds.16 mph32%30.23 "Hg12 mi
3:47 PM81 °FScattered clouds.14 mph26%29.67 "Hg12 mi
2:47 PM79 °FScattered clouds.10 mph26%30.28 "Hg10 mi
1:43 PM75 °FScattered clouds.7 mph29%30.32 "Hg8 mi
12:47 PM73 °FSunny.5 mph36%29.81 "Hg8 mi
9:21 AM63 °FPassing clouds.5 mph56%30.37 "Hg8 mi
8:23 AM59 °FScattered clouds.6 mph72%30.37 "Hg12 mi
7:22 AM57 °FClear.5 mph77%30.35 "Hg12 mi
5:46 AM57 °FPassing clouds.6 mph82%30.33 "Hg12 mi
Weather by CustomWeather, © 2015

See weather overviewHow to use our weather pages